Location: Sambuci
(41.9833°N, 12.9333°E)
Time: 17:22:27
(UTC+00:00)

Daily predictions for brighter satellites

Satellite Brightness Start Highest point End
(mag) Time Altitude Azimuth Time Altitude Azimuth Time Altitude Azimuth
Meteor 1-16 Rocket 4.2 16:39:33 10° S 16:45:05 85° E 16:50:29 10° N
Cosmos 2278 Rocket 2.3 16:40:53 10° S 16:46:28 64° ESE 16:52:06 10° NNE
Cosmos 1908 3.5 16:43:37 10° SSE 16:47:21 46° E 16:51:06 10° NNE
CZ-4 R/B 2.2 16:45:19 10° SE 16:49:01 31° ENE 16:52:46 10° N
Unknown 4.4 16:45:59 10° NW 16:49:02 27° NNE 16:52:06 10° E
Cosmos 1461 3.3 16:45:13 10° NNW 16:49:07 41° NE 16:53:07 10° ESE
Abrixas rocket 3.1 16:49:09 10° W 16:52:02 37° NNW 16:54:55 10° NE
Gbstr 26 Del rocket 4.1 16:47:14 10° NW 16:53:03 61° NNE 17:00:10 10° ESE
Meteor 2-10 3.9 16:48:07 10° S 16:53:09 79° E 16:58:11 10° NNE
NOSS 3-2 (A) 3.7 16:48:43 10° S 16:54:04 45° ESE 17:00:01 10° NE
CSL-04 Rocket 4.2 16:51:43 10° SE 16:56:44 37° ENE 17:01:44 10° N
FengYun 1-2 T 4.4 16:53:50 10° SE 16:59:15 51° ENE 17:04:40 10° N
Cosmos 2058 Rocket 3.3 16:55:26 10° SSW 16:59:47 76° W 17:04:09 10° N
Meteor 1-11 4.3 16:56:19 10° N 17:02:07 69° E 17:07:54 10° SSE
Ariane Rocket 4.2 17:00:56 10° ESE 17:04:40 21° ENE 17:08:24 10° NNE
Cosmos 2084 Rocket 4.5 17:01:01 10° NNW 17:04:54 29° NE 17:08:09 13° E
YAOGAN 6 2.9 17:02:10 10° SE 17:05:38 42° ENE 17:09:04 10° N
COSMO-SKYMED 1 2.5 17:10:55 10° NNE 17:15:17 75° ESE 17:19:37 10° S
Cosmos 1339 Rocket 4.4 17:13:05 10° S 17:19:09 82° E 17:25:20 10° N
Cosmos 1833 Rocket 2.6 17:13:32 10° NNW 17:19:10 75° ENE 17:24:47 10° SSE
NOSS 3-2 (C) 3.6 17:15:07 10° S 17:20:28 45° ESE 17:26:27 10° NE
Unknown 4.3 17:18:11 10° WNW 17:21:06 37° SW 17:24:02 10° SSE
ASTEX 1 3.7 17:19:39 10° N 17:24:37 73° W 17:29:34 10° SSW
BREEZE-M DEB (TANK) 3.6 17:11:21 10° SW 17:25:20 80° SSE 17:28:14 19° ENE
Okean-O 4.0 17:21:40 10° S 17:25:52 43° W 17:30:07 10° NNW
CZ-4 R/B 4.4 17:22:45 10° SSE 17:26:52 88° ENE 17:31:00 10° NNW
Lacrosse 5 1.8 17:28:12 10° NW 17:33:17 71° NE 17:36:54 19° SE
Unknown 3.0 17:31:33 10° NW 17:34:58 71° NE 17:36:20 33° ESE
Cosmos 1300 2.7 17:32:22 10° S 17:36:07 56° E 17:39:52 10° NNE
Cosmos 1076 Rocket 3.6 17:32:06 10° N 17:36:23 52° E 17:40:36 10° SSE
Cosmos 1605 Rocket 4.2 17:30:42 10° N 17:36:50 75° W 17:42:54 10° S
Cosmos 2058 3.3 17:34:45 10° N 17:38:44 39° ENE 17:41:10 20° SE
Delta 2 Rocket 4.2 17:38:21 10° WSW 17:41:27 28° S 17:42:27 24° SSE
Cosmos 1763 Rocket 4.1 17:38:41 10° SSE 17:43:21 32° E 17:45:07 26° ENE
Okean 3 Rocket 4.4 17:40:27 10° NNE 17:44:14 30° ENE 17:44:14 30° ENE
CZ-2D R/B 3.3 17:41:49 11° SSE 17:45:24 56° ENE 17:49:13 10° N
ATLAS 3B R/B 2.8 17:39:06 10° S 17:45:32 48° ESE 17:50:12 18° NE
CSL-04 Debris 4.2 17:40:54 10° SSE 17:46:21 83° WSW 17:51:53 10° NNW
FALCON 9 DEB 3.0 17:44:15 10° NW 17:47:44 77° NE 17:48:30 51° ESE
Cosmos 1727 Rocket 4.0 17:41:42 10° S 17:47:52 87° W 17:54:05 10° N
Cosmos 1812 Rocket 3.7 17:46:04 10° SSW 17:50:29 75° W 17:54:59 10° N
Cosmos 1939 Rocket 2.8 17:48:03 18° SSE 17:50:53 59° ENE 17:54:53 10° N
IRS-1A Rocket 4.4 17:47:02 16° SE 17:51:16 48° ENE 17:56:33 10° N
CENTAUR R/B 2.5 17:46:37 10° SSW 17:52:14 55° ESE 17:56:59 19° NE
Cosmos 2082 Rocket 2.2 17:46:31 10° NNW 17:52:16 87° WSW 17:57:55 10° SSE
Cosmos 2173 Rocket 4.0 17:47:37 10° N 17:53:45 56° E 17:59:45 10° SSE
BREEZE-M DEB (TANK) 3.0 17:55:23 10° WSW 17:59:22 41° NNW 17:59:43 38° N
Cosmos 1943 Rocket 4.1 17:55:23 10° SSE 17:55:56 12° SSE 17:55:56 12° SSE
YAOGAN 1 3.3 17:56:42 10° S 18:00:56 54° W 18:05:12 10° NNW
Falcon 9 debris 3.2 17:57:49 10° WNW 18:01:15 71° SW 18:01:35 64° S
Cosmos 2123 Rocket 4.3 17:59:01 10° SSE 18:04:48 40° E 18:10:34 10° NNE
Unknown 3.1 18:01:33 10° NW 18:05:02 87° WNW 18:05:02 87° WNW
Cosmos 1802 Rocket 4.0 17:58:56 10° N 18:05:17 58° E 18:11:15 11° SSE
Cosmos 44 3.3 18:00:39 10° SW 18:05:37 79° WNW 18:08:22 25° NNE
H-2A R/B 3.5 18:11:50 23° NE 18:11:50 23° NE 18:14:37 10° N
Shenzhou-11 Module 4.2 18:09:00 10° WSW 18:10:44 19° SW 18:10:44 19° SW
Cosmos 1000 Rocket 4.3 18:05:27 10° S 18:11:37 77° E 18:17:53 10° N
Cosmos 1898 Rocket 3.4 18:08:12 10° NNW 18:13:30 66° ENE 18:14:40 51° SE
Unknown 4.3 18:10:10 10° NW 18:12:58 37° N 18:12:58 37° N
In-Cosmos 22 Rocket 4.0 18:09:29 10° N 18:14:57 79° E 18:19:21 17° SSE
BREEZE M DEB (TANK) 3.1 18:12:36 10° WNW 18:15:31 60° SSW 18:17:55 33° SE
Meteor 2-1 Rocket 4.1 18:10:34 10° S 18:16:04 88° W 18:21:41 10° N
Cosmos 1725 Rocket 4.2 18:11:12 10° N 18:17:15 47° ENE 18:17:32 47° E
Cosmos 2100 Rocket 4.0 18:16:40 10° N 18:22:51 81° W 18:28:59 10° S
CZ-4 R/B 4.0 18:20:45 10° SSW 18:24:03 22° W 18:27:24 10° NW
Cosmos-2242 3.6 18:21:55 10° S 18:31:38 - N 18:25:00 46° SSW
Unknown 4.4 18:22:59 10° WNW 18:25:41 41° W 18:25:41 41° W
Cosmos 2278 Rocket 4.5 18:26:45 10° W 18:31:02 22° NW 18:35:21 10° N
Cosmos 2297 4.3 18:29:58 10° SW 18:35:33 55° WNW 18:41:12 10° NNE
Cosmos 2016 Rocket 3.9 18:32:30 10° N 18:38:51 86° E 18:41:16 41° S
SJ 16-02 2.7 18:38:42 10° NNW 18:41:02 31° NNW 18:41:02 31° NNW
Ariane Rocket 3.7 18:39:06 15° S 18:43:14 51° W 18:48:13 10° NNW
ARGOS 4.5 18:46:31 28° N 18:46:31 28° N 18:49:09 10° N
SL-08 R/B 4.3 18:41:33 10° N 18:47:40 85° E 18:47:42 85° E
ADEOS Rocket 3.2 18:55:39 10° NNE 19:03:17 83° ESE 19:10:14 10° SSW
Cosmos 1937 Rocket 4.3 18:58:24 10° NNW 19:02:15 47° NW 19:02:15 47° NW
Lacrosse 5 4.0 19:12:10 10° WNW 19:15:46 20° WSW 19:16:09 20° SW
ATLAS 3B R/B 3.8 19:30:08 10° WSW 19:36:20 38° NW 19:37:31 35° NNW
CENTAUR R/B 3.9 19:37:45 10° WSW 19:43:16 33° NW 19:44:14 32° NNW
H-2A R/B 4.4 19:52:28 20° NW 19:52:28 20° NW 19:54:19 10° NNW
